METEOR 2-17 DEB, 35364

Orbit data source: Space-Track

METEOR 2-17 DEB, 35364 is space debris in LEO originally from a launch on Sat, 30 Jan 1988 UTC launched from the Plesetsk Missile And Space Complex (PKMTR). Debris objects in space refer to the collection of defunct objects orbiting the Earth. Examples of debris include non-operational satellites, rocket bodies, and fragments generated from explosions, collisions, or faulty payload assembly.

Loading next visibility...
Identifier
35364, 1988-005Y
Orbit
LEO
Country
Flag of CISCIS
Related business
Manufacturer
Unknown
Mission
Spacecraft
Bus & Motor
Unknown
Mass
Unknown
Launch date (UTC)
1988-01-30 (38 years ago)
Launch vehicle
Unknown
Launch site
Plesetsk Missile And Space Complex (PKMTR)
Object type
Payload
Rocket body
Debris
Shape & HBR
Unknown shape, 0.1 m
Radar Cross Section
Small (<0.1 m²)

Expand to show TLE details & history
Last TLE update: 3 days ago

TLE from 3 days ago
0 METEOR 2-17 DEB
1 35364U 88005Y   25303.71844074  .00001225  00000-0  79332-3 0  9997
2 35364  82.5477  90.5932 0025417  81.1800 340.9185 14.01877221518604
Epoch: 2025-10-30T17:14Z
TLE epoch observation values (Epoch: 2025-10-30T17:14:33.279Z)
Latitude
61.19935°
Longitude
166.37179°
Altitude
880.307 km
Speed
7.427 km/s
True Right ascension
06h 57m 08s
True Declination
61° 03' 23"
Sunlit
Object was in daylight at epoch
Visualization orbit readout
Latitude
Unknown
Longitude
Unknown
Altitude
Unknown
Speed
Unknown
Apparent Right ascension
Unknown
Apparent Declination
Unknown
Sunlit
N/A
Visualization observer readout
Local Sidereal Time
23:52:36
Azimuth
Unknown
Elevation
Unknown
Doppler factor
Unknown
Orbital elements
Apogee altitude
902.889 km
Perigee altitude
865.97 km
Semi-major axis
7,262.566 km
Eccentricity
0.00254
Inclination
82.5477°
RAAN
90.5932°
Arg. of periapsis
81.18°
True anomaly
340.823°
Mean anomaly
340.9185°
Eccentric anomaly
340.87078°
Mean motion
3.50678 °/min
Orbital period
102.66 mins
BSTAR
0.00079332
Loading maneuver chart data...
Computing Atmospheric mass density...
Loading historical data...
Loading historical data...
Loading historical data...
Loading historical data...
Loading historical data...
Loading historical data...
Loading historical data...

Documentation

Showing up to 5 results
|